User: anonymous   Login
Location: Bad Salzschlirf
(50.3750°N, 9.3000°E)
Time: 17:15:50
(UTC+01:00)
Language:

ISS - Orbit

View from above orbital plane
View from above orbital plane
View from above satellite
View from above satellite

Ground track
Ground track

The orbit data is extracted from the following two-line orbital elements,

1 25544U 98067A   21028.53504738  .00016717  00000-0  10270-3 0  9038
2 25544  51.6449 313.4638 0002311 308.2628  51.8314 15.48887973 26948
Epoch (UTC): 28 January 2021 12:50:28
Eccentricity: 0.0002311
inclination: 51.6449°
perigee height: 418 km
apogee height: 421 km
right ascension of ascending node: 313.4638°
argument of perigee: 308.2628°
revolutions per day: 15.48887973
mean anomaly at epoch: 51.8314°
orbit number at epoch: 2694

The dashed part of the orbit path shows where the satellite is in the earth's shadow,  

DLR